Regional Weather Roundup
Issued by NWS Lake Charles, LA

Home | Current Version | Previous Version | Text Only | Print | Product List | Glossary On
Versions: 1 2 3 4 5 6 7 8 9 10 11 12 13 14 15 16 17 18 19 20 21 22 23 24 25 26 27 28 29 30 31 32 33 34 35 36 37 38 39 40 41 42 43 44 45 46 47 48 49 50
000
ASUS44 KLCH 230710
RWRLCH
RWRLCH
REGIONAL WEATHER ROUNDUP
NATIONAL WEATHER SERVICE LAKE CHARLES LA
100 AM CST SUN NOV 23 2014

Note: "fair" indicates few or no clouds below 12,000 feet with no
significant weather and/or obstructions to visibility.


ACROSS SOUTHEAST TEXAS

CITY           SKY/WX    TMP DP  RH WIND       PRES   REMARKS
BEAUMONT       HVY RAIN  65  64  97 CALM      29.74F FOG
BEAUMONT CITY  CLOUDY    64  63  99 CALM      29.75F
ORANGE         TSTM     N/A N/A N/A E8        29.74F
JASPER         HVY RAIN  64  62  95 SE7       29.77R
$$

ACROSS CENTRAL LOUISIANA

CITY           SKY/WX    TMP DP  RH WIND       PRES   REMARKS
LEESVILLE      LGT RAIN  64  62  95 SE13      29.76R
FULLERTON      NOT AVBL
ALEXANDRIA INT LGT RAIN  63  61  93 SE16G25   29.76F
ESLER FIELD    LGT RAIN  64  61  90 SE9       29.78F
DERIDDER       LGT RAIN  65  64  94 SE9       29.80R
OAKDALE        LGT RAIN  64  62  94 SE10G20   29.76F
OPELOUSAS      LGT RAIN N/A N/A N/A E9        29.79F
$$

ACROSS SOUTHWEST AND SOUTH CENTRAL LOUISIANA

CITY           SKY/WX    TMP DP  RH WIND       PRES   REMARKS
SULPHUR        TSTM      66  65  99 E13G20    29.74F
LAKE CHARLES   HVY RAIN  65  64  97 SE13      29.74F FOG
CHENNAULT INT  RAIN      65  64  99 E14       29.75F
CAMERON PHI      N/A     66  64  94 E15       29.76F FOG
DEQUINCY       RAIN      64  64 100 CALM      29.75S
JENNINGS       LGT RAIN  64  64  99 E9        29.77F
LAFAYETTE      CLOUDY    65  63  93 SE6       29.80F
NEW IBERIA     CLOUDY    67  64  90 E10       29.80F
ABBEVILLE      CLOUDY    65  64  96 E6        29.78F
PATTERSON      CLOUDY    66  63  88 E10       29.82F
SALT POINT       N/A     69  65  86 E8        29.78F
$$

SELECTED SITES ACROSS THE REGION

CITY           SKY/WX    TMP DP  RH WIND       PRES   REMARKS
HOUSTON BUSH   TSTM      65  63  93 S7        29.74S
HOUSTON HOBBY  TSTM      64  63  96 SE3       29.73F
GALVESTON      RAIN      64  61  90 W7        29.77F FOG
COLLEGE STAT   CLOUDY    59  58  96 E7        29.63F
CONROE         RAIN      60  59  96 NE6       29.73F FOG
HUNTSVILLE     RAIN      62  60  93 S5        29.72F FOG
LUFKIN         CLOUDY    68  63  84 S8        29.71F
SHREVEPORT     LGT RAIN  62  61  96 SE6       29.73F FOG
MONROE         CLOUDY    60  56  86 SE6       29.81F
NATCHEZ MS     CLOUDY    63  57  82 SE14      29.84F
BATON ROUGE    CLOUDY    63  61  93 E10       29.84F
N.O. INTL ARPT CLOUDY    63  61  93 E7        29.86R
SLIDELL        CLOUDY    64  60  87 SE10      29.87F
$$

MARINE REPORTS

STATION/POSITION TIME  TEMP    WIND        PRES    VSBY  WAVE
                       AIR SEA DIR/SP/G                  HT/PER
                 (UTC) (F)     (DEG/KT/KT) (MB)    (MI)  (FT/S)
BUOY 30 S HIGH I 0700   62 62  310/ 12/ 16 1007.2R         5/ 7
SEA RIM ST PARK  0600   62     110/  6/  8 1008.2R
PORT ARTHUR      0700      58   CALM  /  2 1006.7F
SABINE PASS N    0700   63 59   90/ 15/ 19 1005.4F
TEXAS POINT      NOT AVBL
CALCASIEU PASS   0700   64 59  110/ 14/ 17   N/A
LK CHARLES BEACH 0700   65 61              1007.2F
MARSH ISLAND     NOT AVBL
FRESH WATER LOCK 0700   64 58   60/ 13/ 18 1007.1F
AMERADA PASS     0700   67 58   90/ 13/ 17 1009.2F
$$


USA.gov is the U.S. government's official web portal to all federal, state and local government web resources and services.